STARLINK-11323, 61533

Orbit data source: Space-Track

STARLINK-11323, 61533 is a payload satellite owned by SpaceX/Seattle (US) in LEO that was launched on Tue, 15 Oct 2024 UTC via an FALCON 9 launch vehicle from the Air Force Western Test Range (AFWTR). Payload-class satellites include a variety of spacecraft equipped with specific instruments for various scientific and technological missions. These include communications satellites like Starlink; space stations such as the ISS; scientific satellites like the Hubble; Earth observation satellites from companies like Planet Labs, Umbra, and HawkEye 360; GPS; miniature CubeSats for education and research; and military/defense satellites.

Loading next visibility...
Identifier
61533, 2024-184B
Orbit
LEO
Country
Flag of USUS
Related business
Manufacturer
SpaceX/Seattle
Mission
Operational Commercial Communications
Bus & Motor
STARLINK V2MD, Unknown motor
Mass
960 kg wet, ~910 kg dry
Launch date (UTC)
2024-10-15 (2 years ago)
Launch vehicle
FALCON 9
Launch site
Air Force Western Test Range (AFWTR)
Object type
Payload
Rocket body
Debris
Shape & HBR
Box + 2 Pan, 18.1 m
Radar Cross Section
36.964 m², Large (>1 m²)

Expand to show TLE details & history
Last TLE update: 21 hours ago

TLE from 21 hours ago
0 STARLINK-11323
1 61533U 24184B   26170.98052666  .00001769  00000-0  19454-4 0  9995
2 61533  53.1594  91.9766 0001127  86.9282 273.1865 15.69715732 96486
Epoch: 2026-06-19T23:31Z
TLE epoch observation values (Epoch: 2026-06-19T23:31:57.503Z)
Latitude
-0.00001°
Longitude
-169.21472°
Altitude
360.583 km
Speed
7.694 km/s
True Right ascension
06h 07m 54s
True Declination
0° 00' 00"
Sunlit
Object was in daylight at epoch
Visualization orbit readout
Latitude
Unknown
Longitude
Unknown
Altitude
Unknown
Speed
Unknown
Apparent Right ascension
Unknown
Apparent Declination
Unknown
Sunlit
N/A
Visualization observer readout
Local Sidereal Time
07:16:31
Azimuth
Unknown
Elevation
Unknown
Doppler factor
Unknown
Orbital elements
Apogee altitude
360.731 km
Perigee altitude
359.212 km
Semi-major axis
6,738.108 km
Eccentricity
0.00011
Inclination
53.1594°
RAAN
91.9766°
Arg. of periapsis
86.9282°
True anomaly
273.17361°
Mean anomaly
273.1865°
Eccentric anomaly
273.18005°
Mean motion
3.92407 °/min
Orbital period
91.74 mins
BSTAR
0.000019454
Loading maneuver chart data...
Computing Atmospheric mass density...
Loading historical data...
Loading historical data...
Loading historical data...
Loading historical data...
Loading historical data...
Loading historical data...
Loading historical data...

Documentation

Showing up to 5 results
|